Observations for Trim Market St
| Time | AQI | Temp °C | Hum % | Pres Pa | CO μg/m³ | H₂S μg/m³ | NO μg/m³ | NO₂ μg/m³ | O₃ μg/m³ | SO₂ μg/m³ | PM1 μg/m³ | PM2.5 μg/m³ | PM10 μg/m³ |
|---|---|---|---|---|---|---|---|---|---|---|---|---|---|
| Thursday 16 July 2026 | |||||||||||||
| 16:29 | 1 | 40.7 | 22 | 67,130 | 0 | 0 | 0 | 0 | 48.03 | 4.53 | 4.99 | 11.44 | 14.84 |
| 16:28 | 1 | 40.7 | 21 | 67,114 | 0 | 0 | 0 | 4.69 | 46.63 | 3.73 | 6.41 | 12.02 | 14.86 |
| 16:27 | 1 | 40.7 | 21 | 67,124 | 0 | 0 | 0 | 0 | 64.75 | 5.97 | 7.13 | 12.57 | 18.52 |
| 16:26 | 1 | 40.7 | 21 | 67,116 | 0 | 0 | 0 | 0 | 35.31 | 5.4 | 5.7 | 12.03 | 15.78 |
| 16:24 | 1 | 40.7 | 22 | 67,122 | 0 | 0 | 0 | 0 | 25.34 | 5.39 | 4.99 | 10.31 | 13 |
| 16:23 | 1 | 40.6 | 22 | 67,133 | 0 | 0 | 0 | 0.3 | 44.18 | 4.15 | 7.13 | 13.06 | 16.63 |
| 16:21 | 1 | 40.6 | 22 | 67,153 | 0 | 0 | 0 | 0 | 51 | 4.57 | 7.13 | 11.96 | 14.81 |
| 16:20 | 1 | 40.6 | 22 | 67,149 | 0 | 0 | 0 | 0 | 38.23 | 5.38 | 7.13 | 13.05 | 16.62 |
| 16:15 | 1 | 40.7 | 22 | 67,130 | 0 | 0 | 0 | 0 | 47.49 | 5.01 | 4.99 | 10.84 | 12.98 |
| 16:10 | 1 | 40.8 | 22 | 67,116 | 0 | 0 | 0 | 0 | 26.69 | 5 | 5.7 | 11.42 | 13.91 |
| 16:06 | 1 | 40.7 | 23 | 67,130 | 0 | 0 | 0 | 2.72 | 45.41 | 4.08 | 9.26 | 15.24 | 20.23 |
| 16:05 | 1 | 40.7 | 23 | 67,145 | 0 | 0 | 0 | 0 | 37.41 | 4.65 | 7.13 | 12.48 | 15.69 |
| 16:04 | 1 | 40.6 | 23 | 67,139 | 0 | 0 | 0 | 0 | 48.43 | 4.74 | 7.84 | 12.46 | 16.58 |
| 16:03 | 1 | 40.6 | 23 | 67,128 | 0 | 0 | 0 | 0 | 42.31 | 4.13 | 7.84 | 14.12 | 18.4 |
| 16:02 | 1 | 40.6 | 23 | 67,149 | 0 | 0 | 0 | 0 | 35.64 | 4.9 | 6.41 | 13.56 | 18.39 |
| 16:01 | 1 | 40.6 | 23 | 67,141 | 0 | 0 | 0 | 8.21 | 19.92 | 2.39 | 9.26 | 14.67 | 19.3 |
| 16:00 | 1 | 40.6 | 23 | 67,133 | 0 | 0 | 0 | 7 | 44.2 | 3.64 | 7.13 | 12.45 | 18.39 |
| 15:58 | 1 | 40.6 | 23 | 67,104 | 0 | 0 | 0 | 0 | 47.94 | 4.51 | 7.13 | 12.47 | 15.69 |
| 15:56 | 1 | 40.7 | 23 | 67,082 | 0 | 0 | 0 | 0 | 31.88 | 3.98 | 7.13 | 12.46 | 15.68 |
| 15:55 | 1 | 40.7 | 23 | 67,084 | 0 | 0 | 0 | 0 | 38.18 | 4.47 | 7.13 | 11.34 | 15.67 |